DW8266 Weather Reports


Display with metric or nautical units.
time (UTC)temp
F
wind
direction
speed
MPH
gust
MPH
rain 1hr
in
rain 24hr
in
rain mn
in
humidity
%
barometer
mb
20260502163111 70 140 1.0 8.0 0.00 1.88 0.00 69 1021.0
20260502161602 69 295 2.0 8.0 0.00 1.88 0.00 68 1021.0
20260502161501 69 301 2.0 8.0 0.00 1.88 0.00 68 1021.0
20260502151600 65 74 2.0 7.0 0.00 1.99 0.00 76 1020.7
20260502150112 64 25 1.0 10.0 0.00 1.99 0.00 79 1020.9
20260502130111 56 304 1.0 4.0 0.00 2.12 0.00 93 1019.7
20260502123103 54 281 0.0 3.0 0.00 2.18 0.00 93 1019.0
20260502121559 54 276 0.0 4.0 0.00 2.18 0.00 93 1018.9
20260502120104 54 270 1.0 4.0 0.00 2.18 0.00 93 1018.8
20260502114559 54 271 1.0 4.0 0.00 2.18 0.00 93 1018.5
20260502111559 54 268 0.0 2.0 0.00 2.18 0.00 92 1018.6
20260502110059 54 239 0.0 4.0 0.00 2.18 0.00 92 1018.2
20260502110001 54 239 0.0 4.0 0.00 2.18 0.00 92 1018.2
20260502104559 55 258 0.0 2.0 0.00 2.20 0.00 92 1017.9
20260502103058 55 55 0.0 2.0 0.00 2.20 0.00 92 1017.8
20260502101600 55 55 0.0 2.0 0.00 2.20 0.00 91 1017.7
20260502070058 56 68 0.0 2.0 0.00 2.81 0.00 93 1016.4
20260502063120 57 230 0.0 7.0 0.00 2.88 0.00 93 1016.5
20260502061558 57 212 0.0 4.0 0.00 2.88 0.00 93 1016.2
20260502060100 57 142 0.0 4.0 0.00 2.88 0.00 93 1016.0
20260502054607 57 69 1.0 5.0 0.00 2.90 0.00 94 1016.0
20260502053104 57 32 0.0 5.0 0.00 2.90 0.00 94 1016.1
20260502050056 57 69 0.0 5.0 0.00 2.90 0.00 94 1015.9
20260502050004 57 69 0.0 5.0 0.00 2.90 0.00 94 1015.9
20260502044603 57 24 0.0 7.0 0.00 3.14 2.90 94 1015.6
20260502043101 57 124 0.0 4.0 0.00 3.14 2.90 94 1015.7
20260502040104 57 129 1.0 3.0 0.00 3.14 2.90 95 1015.8
20260502034559 57 163 1.0 7.0 0.00 3.14 2.90 95 1015.8
20260502031558 57 170 2.0 10.0 0.01 3.14 2.90 94 1015.1
20260502030059 57 252 2.0 9.0 0.01 3.14 2.90 95 1015.0
20260502024607 57 228 2.0 6.0 0.01 3.14 2.90 95 1014.5
20260502023100 58 119 1.0 6.0 0.03 3.14 2.90 95 1013.9
20260502021559 58 331 1.0 7.0 0.03 3.13 2.89 95 1013.7
20260502020058 59 163 0.0 5.0 0.05 3.13 2.89 95 1013.5
20260502020001 59 146 0.0 5.0 0.05 3.13 2.89 95 1013.5
20260502014558 60 281 2.0 9.0 0.09 3.13 2.89 95 1013.5
20260502013059 60 169 0.0 3.0 0.09 3.11 2.87 95 1013.4
20260502011559 59 264 2.0 6.0 0.09 3.10 2.86 95 1013.2
20260502010057 60 252 1.0 8.0 0.09 3.08 2.84 95 1012.8
20260502004603 60 57 0.0 7.0 0.09 3.04 2.80 95 1013.1
20260502003057 60 87 1.0 7.0 0.14 3.02 2.78 95 1012.5
20260502001558 60 217 0.0 7.0 0.15 3.01 2.77 95 1011.9
20260501234559 60 273 0.0 8.0 0.17 2.95 2.71 95 1011.8
20260501233058 61 277 2.0 10.0 0.11 2.88 2.64 95 1012.6
20260501231637 61 100 0.0 9.0 0.09 2.86 2.62 95 1010.1
20260501224611 62 69 2.0 8.0 0.02 2.78 2.54 95 1011.0
20260501223059 62 65 0.0 9.0 0.01 2.77 2.52 95 1010.3
20260501221611 62 17 1.0 7.0 0.02 2.77 2.52 95 1009.8
20260501220100 63 108 1.0 5.0 0.09 2.77 2.52 95 1009.8
20260501220002 63 52 1.0 5.0 0.10 2.77 2.52 95 1009.8
20260501213110 63 134 0.0 7.0 0.12 2.76 2.52 95 1010.6
20260501211610 63 314 1.0 5.0 0.16 2.75 2.50 95 1010.7
20260501210103 63 119 0.0 3.0 0.18 2.67 2.43 95 1010.8
20260501204600 63 224 0.0 4.0 0.17 2.64 2.40 95 1009.1
20260501203059 63 208 1.0 6.0 0.21 2.64 2.40 95 1009.5
20260501201602 63 89 1.0 6.0 0.25 2.59 2.35 95 1009.4
20260501200058 64 146 0.0 3.0 0.21 2.49 2.25 95 1009.3
20260501200005 64 161 0.0 3.0 0.21 2.49 2.25 95 1009.3
20260501194608 64 279 0.0 6.0 0.34 2.47 2.23 95 1008.9
20260501193058 64 27 0.0 3.0 0.33 2.43 2.19 95 1009.2
20260501191559 64 55 0.0 4.0 0.27 2.34 2.10 95 1009.0
20260501190059 64 70 0.0 3.0 0.49 2.27 2.04 95 1009.8
20260501190002 64 70 0.0 3.0 0.49 2.27 2.04 95 1009.8
20260501184558 63 60 0.0 4.0 0.38 2.13 1.89 95 1009.9
20260501183058 64 56 1.0 10.0 0.59 2.10 1.86 95 1009.1
20260501181603 64 84 2.0 7.0 0.69 2.06 1.83 95 1008.2
20260501180101 64 293 1.0 5.0 0.49 1.79 1.55 95 1009.8
20260501174559 64 101 0.0 6.0 0.46 1.75 1.51 95 1009.1
20260501173058 64 302 0.0 7.0 0.23 1.51 1.27 95 1010.5
20260501171557 64 360 0.0 4.0 0.11 1.38 1.13 95 1010.2
20260501164558 64 271 2.0 10.0 0.14 1.29 1.05 95 1010.4